星链-2594 (STARLINK-2594 )

导读 | 豆包AI

STARLINK-2594是美国太空探索技术公司星链星座的一员,于2021年5月4日发射入轨,旨在为全球提供高速低延迟互联网覆盖,尤其服务偏远地区与网络基础设施薄弱区域。星链卫星依托近地轨道部署,该卫星加入后进一步扩充了星座规模,推进全球卫星互联网组网进程,目前已在太空正常运行多年。

基本信息
目录编号:
48388
目录名称:
STARLINK-2594
国际标识:
2021-038AM
轨道中心:
EARTH
卫星名称:
星链-2594
卫星全名:
星链-2594 (STARLINK-2594 )
卫星状态:
在轨 (已飞行1822 天)
发射日期:
2021-05-04 UTC
国别 :
美国 (US)
星等 :
--
轨道信息
数据来源 国际轨道数据
星历时间: 2026-04-30T10:40:49+0800
10小时前
查看轨道信息
半长轴: 6848.884km
偏心率: 0.0001325
轨道倾角: 53.158°
近地点辐角 89.987°
升交点赤经 106.272°
平近点角 270.129°
近地点: 469.839km
远地点: 471.655km
周期: 94.013分钟
每日圈数: 15.316977
详细信息
固有亮度:
5
最大亮度:
2.5
卫星平台:
Starlink V1.0
覆盖范围:
全球
运营商:
太空探索技术公司
运营商所在国:
美国
制造商(研发单位):
太空探索技术公司
制造商所在国:
美国
使用方式:
暂无
卫星简介
星链(Starlink)计划是由太空探索技术公司(SpaceX)提出的一个巨型低轨卫星互联网星座项目,计划在2019年至2024年间在太空搭建由约1.2万颗卫星组成的“星链”网络,其中1584颗将部署在地球上空550千米处的近地轨道,并从2020年开始工作。该卫星仍在工作。
2D轨道图
3D轨道图
轨道高度分析图
轨道倾角分析图
轨道综合分析图
查看轨道综合分析图